Location: Songkhla
(7.2000°N, 100.6000°E)
Time: 20:47:09
(UTC+07:00)

ISS - Pass Details

Date: 19 April 2026
Orbit: 414 x 424 km, 51.6° (Epoch: 19 May)

Event Time Altitude Azimuth Distance (km) Brightness Sun altitude
Rises 01:39:58 0° 190° (S) 2,338 - -62.4°
Reaches altitude 10° 01:42:30 10° 170° (S) 1,477 - -62.0°
Maximum altitude 01:44:51 18° 125° (SE) 1,084 - -61.5°
Drops below altitude 10° 01:47:13 10° 79° (E) 1,479 - -61.1°
Sets 01:49:45 0° 60° (ENE) 2,342 - -60.6°
